{"data":{"norad_id":39285,"epoch":"2026-05-25T03:52:46.481376Z","epoch_age_seconds":67874,"freshness":"FRESH","line1":"1 39285U 13056A   26145.16164909  .00000148  00000+0  00000+0 0  9997","line2":"2 39285   0.0722 316.8226 0002610 111.7179 260.9268  1.00272847 46187","mean_motion":1.00272847,"eccentricity":0.000261,"inclination_deg":0.0722,"raan_deg":316.8226,"arg_perigee_deg":111.7179,"mean_anomaly_deg":260.9268,"bstar":0,"rev_number":4618,"period_min":1436.0816941799,"perigee_km":35775.292329328,"apogee_km":35797.302164005,"semimajor_km":42164.434246667,"source":"CELESTRAK","updated_at":"2026-05-25T13:38:14.507995Z"}}